Weather in Bolshaya Usa

Russia / Perm Krai     56°44′16″N   55°05′58″E
temp.,
°C
wind,
m/s
gust,
m/s
humid.,
%
clouds,
%
prec.,
mm/h
press.,
hPa
HPBL,
m
1 march, mon
mon123:00−15nne489486 0.1 1011243
02:00−16nne479591 0.1 1012184
05:00−17nne379680 0.1 1014150
08:00−19nne349869 0.0 101677
11:00−15ne359273 0.1 1017324
14:00−12nne238596 0.0 1017485
17:00−11nnw228898 0.1 1018525
20:00−17wnw2297100 0.0 101720
2 march, tue
tue223:00−18sw339967 0.1 101727
02:00−20ssw4810067 0.0 1014145
05:00−19ssw6109784 0.0 1012263
08:00−19s71297100 0.2 1008317
11:00−15s71395100 0.9 1006435
14:00−11s81394100 0.9 1002584
17:00−9s81394100 1.4 1000566
20:00−8s71394100 0.7 998475
3 march, wed
wed323:00−7s61295100 1.6 996406
02:00−4s4896100 1.1 994259
05:00−3wsw4897100 2.3 995347
08:00−6wsw3797100 0.3 994201
11:00−5wsw3596100 0.4 996284
14:00−3wnw4593100 0.3 997506
17:00−3w3593100 0.4 998431
20:00−4wsw4797100 1.1 998388
4 march, thu
thu423:00−7nw6129399 1.6 1000465
02:00−12wnw499693 0.1 1000183
05:00−14w369886 0.1 1001101
08:00−14wsw389898 0.1 1002152
11:00−10wsw479599 0.1 1002281
14:00−7sw5892100 0.2 1001553
17:00−6sw6890100 0.3 1000681
20:00−7ssw61295100 0.3 998537
5 march, fri
fri523:00−5ssw81494100 1.1 995820
02:00−4ssw71396100 1.0 991760
05:00−2sw61297100 2.9 988719
08:00−2wsw61297100 2.3 987757
11:00−5w91286100 3.4 9901072
14:00−6w91388100 0.2 9961079
17:00−7wnw81284100 0.3 1002992
20:00−10w51290100 0.0 1006419